• In Russia
  • List of Countries
  • For 7 days
  • Water Temperature
  • Satellite Maps
  • Weather Map
  • Weather Widgets
  • user-avatar
    Login

    Hourly Weather Debina

    Today, 19 January, Saturday

    Time Temperature Precipitation Wind Pressure Humidity
    00:00 -3°C° 0 mm 2 mps 754 mmHg 74%
    01:00 -3°C° 0 mm 2 mps 754 mmHg 68%
    02:00 -3°C° 0 mm 2 mps 754 mmHg 66%
    03:00 -3°C° 0 mm 2 mps 754 mmHg 63%
    04:00 -3°C° 0 mm 2 mps 754 mmHg 61%
    05:00 -3°C° 0 mm 2 mps 754 mmHg 61%
    06:00 -3°C° 0 mm 2 mps 754 mmHg 61%
    07:00 -3°C° 0 mm 2 mps 754 mmHg 61%
    08:00 -2°C° 0 mm 2 mps 754 mmHg 59%
    09:00 -2°C° 0 mm 2 mps 754 mmHg 58%
    10:00 +1°C° 0 mm 1 mps 754 mmHg 56%
    11:00 +1°C° 0 mm 1 mps 754 mmHg 56%
    12:00 +2°C° 0 mm 1 mps 754 mmHg 56%
    13:00 +2°C° 0 mm 1 mps 754 mmHg 56%
    14:00 +2°C° 0 mm 1 mps 753 mmHg 58%
    15:00 +1°C° 0 mm 1 mps 753 mmHg 60%
    16:00 +1°C° 0 mm 1 mps 753 mmHg 63%
    17:00 0°C° 0 mm 1 mps 753 mmHg 63%
    18:00 -2°C° 0 mm 2 mps 753 mmHg 64%
    19:00 -3°C° 0 mm 2 mps 753 mmHg 65%
    20:00 -3°C° 0 mm 2 mps 752 mmHg 65%
    21:00 -3°C° 0 mm 2 mps 752 mmHg 65%
    22:00 -3°C° 0 mm 2 mps 752 mmHg 64%
    23:00 -3°C° 0 mm 2 mps 752 mmHg 65%

    Tomorrow, 20 January, Sunday

    Time Temperature Precipitation Wind Pressure Humidity
    00:00 -3°C° 0 mm 2 mps 752 mmHg 65%
    01:00 -3°C° 0 mm 2 mps 752 mmHg 66%
    02:00 -4°C° 0 mm 2 mps 752 mmHg 66%
    03:00 -2°C° 0 mm 1 mps 751 mmHg 67%
    04:00 -2°C° 0 mm 1 mps 751 mmHg 67%
    05:00 -2°C° 0 mm 1 mps 751 mmHg 68%
    06:00 -2°C° 0 mm 1 mps 751 mmHg 68%
    07:00 -2°C° 0 mm 1 mps 751 mmHg 68%
    08:00 -2°C° 0 mm 1 mps 751 mmHg 65%
    09:00 -1°C° 0 mm 1 mps 751 mmHg 62%
    10:00 -1°C° 0 mm 1 mps 751 mmHg 59%
    11:00 0°C° 0 mm 1 mps 751 mmHg 56%
    12:00 +1°C° 0 mm 1 mps 751 mmHg 52%
    13:00 +1°C° 0 mm 1 mps 751 mmHg 49%
    14:00 +1°C° 0 mm 1 mps 751 mmHg 51%
    15:00 0°C° 0 mm 1 mps 751 mmHg 53%
    16:00 0°C° 0 mm 1 mps 751 mmHg 55%
    17:00 0°C° 0 mm 1 mps 752 mmHg 57%
    18:00 -1°C° 0 mm 1 mps 752 mmHg 59%
    19:00 -1°C° 0 mm 1 mps 753 mmHg 61%
    20:00 -1°C° 0 mm 1 mps 753 mmHg 62%
    21:00 -1°C° 0 mm 1 mps 753 mmHg 62%
    22:00 -1°C° 0 mm 1 mps 754 mmHg 63%
    23:00 -2°C° 0 mm 1 mps 754 mmHg 63%

    Day after tomorrow, 21 January, Monday

    Time Temperature Precipitation Wind Pressure Humidity
    00:00 -2°C° 0 mm 1 mps 754 mmHg 64%
    01:00 -2°C° 0 mm 1 mps 754 mmHg 65%
    02:00 -2°C° 0 mm 1 mps 754 mmHg 66%
    03:00 -2°C° 0 mm 1 mps 754 mmHg 67%
    04:00 -2°C° 0 mm 1 mps 754 mmHg 68%
    05:00 -2°C° 0 mm 1 mps 755 mmHg 69%
    06:00 -3°C° 0 mm 1 mps 755 mmHg 70%
    07:00 -3°C° 0 mm 1 mps 755 mmHg 71%
    08:00 -2°C° 0 mm 1 mps 755 mmHg 68%
    09:00 -2°C° 0 mm 1 mps 755 mmHg 65%
    10:00 -1°C° 0 mm 1 mps 755 mmHg 62%
    11:00 0°C° 0 mm 1 mps 755 mmHg 58%
    12:00 0°C° 0 mm 1 mps 755 mmHg 55%
    13:00 +1°C° 0 mm 1 mps 755 mmHg 52%
    14:00 +1°C° 0 mm 1 mps 754 mmHg 53%
    15:00 0°C° 0 mm 1 mps 754 mmHg 55%
    16:00 0°C° 0 mm 1 mps 754 mmHg 57%
    17:00 -1°C° 0 mm 1 mps 754 mmHg 58%
    18:00 -1°C° 0 mm 1 mps 753 mmHg 59%
    19:00 -3°C° 0 mm 2 mps 753 mmHg 60%
    20:00 -3°C° 0 mm 2 mps 753 mmHg 62%
    21:00 -4°C° 0 mm 2 mps 753 mmHg 63%
    22:00 -4°C° 0 mm 2 mps 752 mmHg 64%
    23:00 -4°C° 0 mm 2 mps 752 mmHg 65%

    22 January, Tuesday

    Time Temperature Precipitation Wind Pressure Humidity
    00:00 -4°C° 0 mm 2 mps 752 mmHg 65%
    01:00 -4°C° 0 mm 2 mps 751 mmHg 65%
    02:00 -4°C° 0 mm 2 mps 751 mmHg 64%
    03:00 -5°C° 0 mm 2 mps 750 mmHg 62%
    04:00 -5°C° 0 mm 2 mps 750 mmHg 60%
    05:00 -5°C° 0 mm 2 mps 749 mmHg 59%
    06:00 -5°C° 0 mm 2 mps 749 mmHg 57%
    07:00 -5°C° 0 mm 2 mps 749 mmHg 55%
    08:00 -4°C° 0 mm 2 mps 749 mmHg 53%
    09:00 -4°C° 0 mm 2 mps 748 mmHg 50%
    10:00 -3°C° 0 mm 2 mps 748 mmHg 47%
    11:00 -2°C° 0 mm 2 mps 747 mmHg 44%
    12:00 -2°C° 0 mm 2 mps 747 mmHg 41%
    13:00 -1°C° 0 mm 2 mps 746 mmHg 38%
    14:00 -1°C° 0 mm 2 mps 746 mmHg 41%
    15:00 -2°C° 0 mm 2 mps 745 mmHg 43%
    16:00 -2°C° 0 mm 2 mps 745 mmHg 45%
    17:00 -3°C° 0 mm 2 mps 745 mmHg 49%
    18:00 -3°C° 0 mm 2 mps 744 mmHg 53%
    19:00 -4°C° 0 mm 3 mps 744 mmHg 57%
    20:00 -5°C° 0 mm 3 mps 744 mmHg 60%
    21:00 -5°C° 0 mm 3 mps 744 mmHg 63%
    22:00 -5°C° 0 mm 3 mps 744 mmHg 65%
    23:00 -5°C° 0 mm 3 mps 744 mmHg 66%

    23 January, Wednesday

    Time Temperature Precipitation Wind Pressure Humidity
    00:00 -5°C° 0 mm 3 mps 743 mmHg 68%
    01:00 -5°C° 0 mm 3 mps 743 mmHg 69%
    02:00 -5°C° 0 mm 3 mps 743 mmHg 71%
    03:00 -6°C° 0 mm 3 mps 743 mmHg 74%
    04:00 -6°C° 0 mm 3 mps 742 mmHg 76%
    05:00 -6°C° 0 mm 3 mps 742 mmHg 76%
    06:00 -6°C° 0 mm 3 mps 742 mmHg 76%
    07:00 -6°C° 0 mm 3 mps 743 mmHg 76%
    08:00 -7°C° 0 mm 4 mps 743 mmHg 73%
    09:00 -5°C° 0 mm 4 mps 743 mmHg 70%
    10:00 -5°C° 0 mm 4 mps 743 mmHg 68%
    11:00 -4°C° 0 mm 4 mps 743 mmHg 67%
    12:00 -3°C° 0 mm 4 mps 743 mmHg 65%
    13:00 -2°C° 0 mm 4 mps 743 mmHg 64%
    14:00 -3°C° 0 mm 4 mps 743 mmHg 65%
    15:00 -3°C° 0 mm 4 mps 743 mmHg 66%
    16:00 -3°C° 0 mm 4 mps 743 mmHg 67%
    17:00 -4°C° 0 mm 4 mps 743 mmHg 68%
    18:00 -4°C° 0 mm 4 mps 744 mmHg 70%
    19:00 -4°C° 0 mm 4 mps 744 mmHg 71%
    20:00 -5°C° 0 mm 4 mps 744 mmHg 71%
    21:00 -5°C° 0 mm 4 mps 745 mmHg 71%
    22:00 -5°C° 0 mm 4 mps 745 mmHg 71%
    23:00 -5°C° 0 mm 4 mps 745 mmHg 70%

    24 January, Thursday

    Time Temperature Precipitation Wind Pressure Humidity
    00:00 -5°C° 0 mm 4 mps 745 mmHg 70%
    01:00 -5°C° 0 mm 3 mps 745 mmHg 69%
    02:00 -5°C° 0 mm 3 mps 745 mmHg 69%
    03:00 -5°C° 0 mm 3 mps 745 mmHg 69%
    04:00 -5°C° 0 mm 3 mps 745 mmHg 69%
    05:00 -5°C° 0 mm 3 mps 746 mmHg 69%
    06:00 -5°C° 0 mm 3 mps 746 mmHg 69%
    07:00 -4°C° 0 mm 3 mps 746 mmHg 69%
    08:00 -4°C° 0 mm 3 mps 746 mmHg 69%
    09:00 -4°C° 0 mm 3 mps 746 mmHg 70%
    10:00 -4°C° 0 mm 3 mps 747 mmHg 70%
    11:00 -4°C° 0 mm 3 mps 746 mmHg 69%
    12:00 -2°C° 0 mm 3 mps 746 mmHg 68%
    13:00 -2°C° 0 mm 3 mps 746 mmHg 67%
    14:00 -2°C° 0 mm 3 mps 746 mmHg 69%
    15:00 -2°C° 0 mm 3 mps 746 mmHg 70%
    16:00 -4°C° 0 mm 3 mps 746 mmHg 72%
    17:00 -4°C° 0 mm 3 mps 746 mmHg 73%
    18:00 -4°C° 0 mm 3 mps 746 mmHg 74%
    19:00 -4°C° 0 mm 3 mps 746 mmHg 75%
    20:00 -4°C° 0 mm 3 mps 746 mmHg 75%
    21:00 -4°C° 0 mm 3 mps 746 mmHg 75%
    22:00 -4°C° 0 mm 3 mps 746 mmHg 75%
    23:00 -4°C° 0 mm 3 mps 746 mmHg 76%
    Show more